Time,TemperatureF,DewpointF,PressureIn,WindDirection,WindDirectionDegrees,WindSpeedMPH,WindSpeedGustMPH,Humidity,HourlyPrecipIn,Conditions,Clouds,dailyrainin,SoftwareType,DateUTC
2013-08-06 00:02:00,75.0,61.0,30.05,ESE,110,0.0,-999.0,61,-99.99,,,-99.99,,2013-08-06 04:02:00,
2013-08-06 00:11:00,75.0,61.0,30.05,ESE,110,0.0,-999.0,61,-99.99,,,-99.99,,2013-08-06 04:11:00,
2013-08-06 00:44:00,75.0,61.0,30.04,ESE,110,0.0,-999.0,62,-99.99,,,-99.99,,2013-08-06 04:44:00,
2013-08-06 00:54:00,75.0,61.0,30.04,ESE,110,0.0,-999.0,62,-99.99,,,-99.99,,2013-08-06 04:54:00,
2013-08-06 01:02:00,76.0,62.0,30.04,ESE,110,0.0,-999.0,61,-99.99,,,-99.99,,2013-08-06 05:02:00,
2013-08-06 01:11:00,76.0,62.0,30.04,ESE,110,0.0,-999.0,61,-99.99,,,-99.99,,2013-08-06 05:11:00,
2013-08-06 01:22:00,76.0,62.0,30.04,ESE,110,0.0,-999.0,61,-99.99,,,-99.99,,2013-08-06 05:22:00,
2013-08-06 01:32:00,76.0,61.0,30.03,ESE,110,0.0,-999.0,60,-99.99,,,-99.99,,2013-08-06 05:32:00,
2013-08-06 01:43:00,76.0,61.0,30.03,ESE,110,0.0,-999.0,60,-99.99,,,-99.99,,2013-08-06 05:43:00,
2013-08-06 01:53:00,77.0,62.0,30.03,SE,124,0.0,-999.0,59,-99.99,,,-99.99,,2013-08-06 05:53:00,
2013-08-06 02:02:00,77.0,62.0,30.02,ESE,120,0.0,-999.0,59,-99.99,,,-99.99,,2013-08-06 06:02:00,
2013-08-06 02:12:00,77.0,62.0,30.02,ESE,120,0.0,-999.0,59,-99.99,,,-99.99,,2013-08-06 06:12:00,
2013-08-06 02:22:00,77.0,62.0,30.02,ESE,120,0.0,-999.0,60,-99.99,,,-99.99,,2013-08-06 06:22:00,
2013-08-06 02:32:00,76.0,62.0,30.01,ESE,120,0.0,-999.0,61,-99.99,,,-99.99,,2013-08-06 06:32:00,
2013-08-06 02:43:00,76.0,62.0,30.01,ESE,120,0.0,-999.0,61,-99.99,,,-99.99,,2013-08-06 06:43:00,
2013-08-06 02:52:00,76.0,62.0,30.01,ESE,120,0.0,-999.0,62,-99.99,,,-99.99,,2013-08-06 06:52:00,
2013-08-06 03:01:00,76.0,62.0,30.01,ESE,120,0.0,-999.0,63,-99.99,,,-99.99,,2013-08-06 07:01:00,
2013-08-06 03:22:00,76.0,63.0,30.01,ESE,120,0.0,-999.0,64,-99.99,,,-99.99,,2013-08-06 07:22:00,
2013-08-06 03:32:00,75.0,62.0,30.01,ESE,120,0.0,-999.0,65,-99.99,,,-99.99,,2013-08-06 07:32:00,
2013-08-06 03:43:00,75.0,62.0,30.01,ESE,120,0.0,-999.0,65,-99.99,,,-99.99,,2013-08-06 07:43:00,
2013-08-06 03:53:00,75.0,63.0,30.01,ESE,120,0.0,-999.0,66,-99.99,,,-99.99,,2013-08-06 07:53:00,
2013-08-06 04:02:00,75.0,63.0,30.01,ESE,120,0.0,-999.0,67,-99.99,,,-99.99,,2013-08-06 08:02:00,
2013-08-06 04:11:00,75.0,63.0,30.01,ESE,120,0.0,-999.0,67,-99.99,,,-99.99,,2013-08-06 08:11:00,
2013-08-06 04:22:00,74.0,64.0,29.99,ESE,120,0.0,-999.0,70,-99.99,,,-99.99,,2013-08-06 08:22:00,
2013-08-06 04:33:00,74.0,63.0,29.99,ESE,120,0.0,-999.0,69,-99.99,,,-99.99,,2013-08-06 08:33:00,
2013-08-06 04:43:00,74.0,63.0,29.99,ESE,120,0.0,-999.0,69,-99.99,,,-99.99,,2013-08-06 08:43:00,
2013-08-06 04:52:00,74.0,63.0,29.98,ESE,120,0.0,-999.0,69,-99.99,,,-99.99,,2013-08-06 08:52:00,
2013-08-06 05:01:00,73.0,63.0,29.98,ESE,120,0.0,-999.0,70,-99.99,,,-99.99,,2013-08-06 09:01:00,
2013-08-06 05:11:00,73.0,63.0,29.98,ESE,120,0.0,-999.0,70,-99.99,,,-99.99,,2013-08-06 09:11:00,
2013-08-06 05:22:00,73.0,63.0,29.97,ESE,120,0.0,-999.0,71,-99.99,,,-99.99,,2013-08-06 09:22:00,
2013-08-06 05:32:00,73.0,63.0,29.97,ESE,120,0.0,-999.0,72,-99.99,,,-99.99,,2013-08-06 09:32:00,
2013-08-06 05:43:00,73.0,63.0,29.97,ESE,120,0.0,-999.0,72,-99.99,,,-99.99,,2013-08-06 09:43:00,
2013-08-06 05:52:00,73.0,64.0,29.98,ESE,120,0.0,-999.0,73,-99.99,,,-99.99,,2013-08-06 09:52:00,
2013-08-06 06:01:00,73.0,64.0,29.98,ESE,120,0.0,-999.0,73,-99.99,,,-99.99,,2013-08-06 10:01:00,
2013-08-06 06:12:00,72.0,64.0,29.98,ESE,120,0.0,-999.0,76,-99.99,,,-99.99,,2013-08-06 10:12:00,
2013-08-06 06:22:00,72.0,65.0,29.98,ESE,120,0.0,-999.0,79,-99.99,,,-99.99,,2013-08-06 10:22:00,
2013-08-06 06:32:00,72.0,65.0,29.98,ESE,120,0.0,-999.0,79,-99.99,,,-99.99,,2013-08-06 10:32:00,
2013-08-06 06:43:00,71.0,65.0,29.99,ESE,120,0.0,-999.0,81,-99.99,,,-99.99,,2013-08-06 10:43:00,
2013-08-06 06:53:00,71.0,65.0,29.99,ESE,120,0.0,-999.0,82,-99.99,,,-99.99,,2013-08-06 10:53:00,
2013-08-06 07:02:00,70.0,65.0,30.00,ESE,120,0.0,-999.0,83,-99.99,,,-99.99,,2013-08-06 11:02:00,
2013-08-06 07:11:00,70.0,65.0,30.00,ESE,120,0.0,-999.0,83,-99.99,,,-99.99,,2013-08-06 11:11:00,
2013-08-06 07:22:00,70.0,66.0,30.01,ESE,120,0.0,-999.0,86,-99.99,,,-99.99,,2013-08-06 11:22:00,
2013-08-06 07:32:00,70.0,65.0,30.01,ESE,120,0.0,-999.0,85,-99.99,,,-99.99,,2013-08-06 11:32:00,
2013-08-06 07:43:00,70.0,65.0,30.01,ESE,120,0.0,-999.0,85,-99.99,,,-99.99,,2013-08-06 11:43:00,
2013-08-06 07:53:00,70.0,66.0,30.01,ESE,120,0.0,-999.0,86,-99.99,,,-99.99,,2013-08-06 11:53:00,
2013-08-06 08:02:00,72.0,67.0,30.01,ESE,120,0.0,-999.0,84,-99.99,,,-99.99,,2013-08-06 12:02:00,
2013-08-06 08:22:00,74.0,67.0,30.01,ESE,120,0.0,-999.0,80,-99.99,,,-99.99,,2013-08-06 12:22:00,
2013-08-06 08:32:00,76.0,67.0,30.02,ESE,120,0.0,-999.0,74,-99.99,,,-99.99,,2013-08-06 12:32:00,
2013-08-06 08:43:00,76.0,67.0,30.02,ESE,120,0.0,-999.0,74,-99.99,,,-99.99,,2013-08-06 12:43:00,
2013-08-06 08:52:00,78.0,67.0,30.02,ESE,120,0.0,-999.0,69,-99.99,,,-99.99,,2013-08-06 12:52:00,
2013-08-06 09:02:00,80.0,66.0,30.03,ESE,120,0.0,-999.0,63,-99.99,,,-99.99,,2013-08-06 13:02:00,
2013-08-06 09:11:00,80.0,66.0,30.03,ESE,120,0.0,-999.0,63,-99.99,,,-99.99,,2013-08-06 13:11:00,
2013-08-06 09:32:00,80.0,64.0,30.03,ESE,116,0.0,-999.0,59,-99.99,,,-99.99,,2013-08-06 13:32:00,
2013-08-06 09:42:00,80.0,64.0,30.03,ESE,116,0.0,-999.0,59,-99.99,,,-99.99,,2013-08-06 13:42:00,
2013-08-06 09:53:00,81.0,65.0,30.03,ESE,110,0.0,-999.0,58,-99.99,,,-99.99,,2013-08-06 13:53:00,
2013-08-06 10:01:00,82.0,65.0,30.03,ESE,107,0.0,-999.0,57,-99.99,,,-99.99,,2013-08-06 14:01:00,
2013-08-06 10:11:00,82.0,65.0,30.03,ESE,107,0.0,-999.0,57,-99.99,,,-99.99,,2013-08-06 14:11:00,
2013-08-06 10:22:00,82.0,64.0,30.04,ESE,123,0.0,-999.0,55,-99.99,,,-99.99,,2013-08-06 14:22:00,
2013-08-06 10:32:00,81.0,64.0,30.04,ESE,123,0.0,-999.0,56,-99.99,,,-99.99,,2013-08-06 14:32:00,
2013-08-06 10:42:00,81.0,64.0,30.04,ESE,123,0.0,-999.0,56,-99.99,,,-99.99,,2013-08-06 14:42:00,
2013-08-06 10:53:00,81.0,64.0,30.04,ESE,120,0.0,-999.0,57,-99.99,,,-99.99,,2013-08-06 14:53:00,
2013-08-06 11:02:00,82.0,65.0,30.04,ESE,119,0.0,-999.0,56,-99.99,,,-99.99,,2013-08-06 15:02:00,
2013-08-06 11:12:00,82.0,65.0,30.04,ESE,119,0.0,-999.0,56,-99.99,,,-99.99,,2013-08-06 15:12:00,
2013-08-06 11:23:00,82.0,65.0,30.04,SE,124,0.0,-999.0,56,-99.99,,,-99.99,,2013-08-06 15:23:00,
2013-08-06 11:33:00,82.0,65.0,30.04,SE,124,0.0,-999.0,56,-99.99,,,-99.99,,2013-08-06 15:33:00,
2013-08-06 11:44:00,82.0,65.0,30.05,SE,131,0.0,-999.0,57,-99.99,,,-99.99,,2013-08-06 15:44:00,
2013-08-06 11:52:00,81.0,64.0,30.05,SE,133,0.0,-999.0,56,-99.99,,,-99.99,,2013-08-06 15:52:00,
2013-08-06 12:02:00,81.0,64.0,30.06,SE,130,0.0,-999.0,57,-99.99,,,-99.99,,2013-08-06 16:02:00,
2013-08-06 12:11:00,81.0,64.0,30.06,SE,130,0.0,-999.0,57,-99.99,,,-99.99,,2013-08-06 16:11:00,
2013-08-06 12:22:00,81.0,64.0,30.06,SE,130,0.0,-999.0,57,-99.99,,,-99.99,,2013-08-06 16:22:00,
2013-08-06 12:32:00,80.0,64.0,30.06,SE,130,0.0,-999.0,59,-99.99,,,-99.99,,2013-08-06 16:32:00,
2013-08-06 12:43:00,80.0,64.0,30.06,SE,130,0.0,-999.0,59,-99.99,,,-99.99,,2013-08-06 16:43:00,
2013-08-06 12:52:00,80.0,65.0,30.06,SE,130,0.0,-999.0,61,-99.99,,,-99.99,,2013-08-06 16:52:00,
2013-08-06 13:02:00,80.0,66.0,30.06,SE,130,0.0,-999.0,62,-99.99,,,-99.99,,2013-08-06 17:02:00,
2013-08-06 13:11:00,80.0,66.0,30.06,SE,130,0.0,-999.0,62,-99.99,,,-99.99,,2013-08-06 17:11:00,
2013-08-06 13:32:00,81.0,65.0,30.05,SE,136,0.0,-999.0,58,-99.99,,,-99.99,,2013-08-06 17:32:00,
2013-08-06 13:44:00,81.0,65.0,30.05,SE,136,0.0,-999.0,58,-99.99,,,-99.99,,2013-08-06 17:44:00,
2013-08-06 13:52:00,82.0,65.0,30.05,SE,136,0.0,-999.0,57,-99.99,,,-99.99,,2013-08-06 17:52:00,
2013-08-06 14:01:00,82.0,65.0,30.05,SE,137,0.0,-999.0,56,-99.99,,,-99.99,,2013-08-06 18:01:00,
2013-08-06 14:11:00,82.0,65.0,30.05,SE,137,0.0,-999.0,56,-99.99,,,-99.99,,2013-08-06 18:11:00,
2013-08-06 14:22:00,82.0,65.0,30.05,SE,134,0.0,-999.0,57,-99.99,,,-99.99,,2013-08-06 18:22:00,
2013-08-06 14:32:00,81.0,64.0,30.04,SE,126,0.0,-999.0,57,-99.99,,,-99.99,,2013-08-06 18:32:00,
2013-08-06 14:43:00,81.0,64.0,30.04,SE,126,0.0,-999.0,57,-99.99,,,-99.99,,2013-08-06 18:43:00,
2013-08-06 14:52:00,80.0,64.0,30.04,ESE,123,0.0,-999.0,59,-99.99,,,-99.99,,2013-08-06 18:52:00,
2013-08-06 15:01:00,80.0,64.0,30.04,ESE,123,0.0,-999.0,59,-99.99,,,-99.99,,2013-08-06 19:01:00,
2013-08-06 15:11:00,80.0,64.0,30.04,ESE,123,0.0,-999.0,59,-99.99,,,-99.99,,2013-08-06 19:11:00,
2013-08-06 15:22:00,80.0,66.0,30.05,ESE,123,0.0,-999.0,62,-99.99,,,-99.99,,2013-08-06 19:22:00,
2013-08-06 15:32:00,80.0,67.0,30.04,ESE,123,0.0,-999.0,64,-99.99,,,-99.99,,2013-08-06 19:32:00,
2013-08-06 15:42:00,80.0,67.0,30.04,ESE,123,0.0,-999.0,64,-99.99,,,-99.99,,2013-08-06 19:42:00,
2013-08-06 15:52:00,80.0,66.0,30.04,SE,124,0.0,-999.0,62,-99.99,,,-99.99,,2013-08-06 19:52:00,
2013-08-06 16:01:00,80.0,66.0,30.04,SE,124,0.0,-999.0,62,-99.99,,,-99.99,,2013-08-06 20:01:00,
2013-08-06 16:11:00,80.0,65.0,30.04,SE,124,0.0,-999.0,61,-99.99,,,-99.99,,2013-08-06 20:11:00,
2013-08-06 16:22:00,80.0,66.0,30.03,ESE,120,0.0,-999.0,62,-99.99,,,-99.99,,2013-08-06 20:22:00,
2013-08-06 16:32:00,80.0,66.0,30.03,ESE,120,0.0,-999.0,62,-99.99,,,-99.99,,2013-08-06 20:32:00,
2013-08-06 16:44:00,80.0,66.0,30.03,ESE,119,0.0,-999.0,62,-99.99,,,-99.99,,2013-08-06 20:44:00,
2013-08-06 16:52:00,80.0,65.0,30.03,SE,124,0.0,-999.0,61,-99.99,,,-99.99,,2013-08-06 20:52:00,
2013-08-06 17:01:00,80.0,66.0,30.02,ESE,123,0.0,-999.0,62,-99.99,,,-99.99,,2013-08-06 21:01:00,
2013-08-06 17:12:00,80.0,66.0,30.02,ESE,123,0.0,-999.0,62,-99.99,,,-99.99,,2013-08-06 21:12:00,
2013-08-06 17:22:00,80.0,67.0,30.02,ESE,119,0.0,-999.0,64,-99.99,,,-99.99,,2013-08-06 21:22:00,
2013-08-06 17:32:00,80.0,67.0,30.02,ESE,119,0.0,-999.0,64,-99.99,,,-99.99,,2013-08-06 21:32:00,
2013-08-06 17:43:00,80.0,67.0,30.02,ESE,121,0.0,-999.0,65,-99.99,,,-99.99,,2013-08-06 21:43:00,
2013-08-06 17:52:00,80.0,66.0,30.04,ESE,121,0.0,-999.0,63,-99.99,,,-99.99,,2013-08-06 21:52:00,
2013-08-06 18:01:00,80.0,66.0,30.04,ESE,121,0.0,-999.0,62,-99.99,,,-99.99,,2013-08-06 22:01:00,
2013-08-06 18:11:00,80.0,66.0,30.04,ESE,121,0.0,-999.0,62,-99.99,,,-99.99,,2013-08-06 22:11:00,
2013-08-06 18:22:00,80.0,66.0,30.03,ESE,121,0.0,-999.0,63,-99.99,,,-99.99,,2013-08-06 22:22:00,
2013-08-06 18:43:00,80.0,66.0,30.03,SE,124,0.0,-999.0,62,-99.99,,,-99.99,,2013-08-06 22:43:00,
2013-08-06 18:53:00,80.0,67.0,30.03,SE,124,0.0,-999.0,64,-99.99,,,-99.99,,2013-08-06 22:53:00,
2013-08-06 19:02:00,80.0,66.0,30.03,SE,126,0.0,-999.0,62,-99.99,,,-99.99,,2013-08-06 23:02:00,
2013-08-06 19:11:00,80.0,66.0,30.03,SE,126,0.0,-999.0,62,-99.99,,,-99.99,,2013-08-06 23:11:00,
2013-08-06 19:22:00,80.0,66.0,30.03,SE,126,0.0,-999.0,63,-99.99,,,-99.99,,2013-08-06 23:22:00,
2013-08-06 19:33:00,80.0,66.0,30.03,SE,126,0.0,-999.0,63,-99.99,,,-99.99,,2013-08-06 23:33:00,
2013-08-06 19:43:00,79.0,65.0,30.03,SE,127,0.0,-999.0,63,-99.99,,,-99.99,,2013-08-06 23:43:00,
2013-08-06 20:01:00,79.0,66.0,30.03,SE,127,0.0,-999.0,64,-99.99,,,-99.99,,2013-08-07 00:01:00,
2013-08-06 20:11:00,79.0,66.0,30.03,SE,127,0.0,-999.0,64,-99.99,,,-99.99,,2013-08-07 00:11:00,
2013-08-06 20:21:00,78.0,66.0,30.04,SE,127,0.0,-999.0,66,-99.99,,,-99.99,,2013-08-07 00:21:00,
2013-08-06 20:32:00,78.0,67.0,30.05,SE,127,0.0,-999.0,69,-99.99,,,-99.99,,2013-08-07 00:32:00,
2013-08-06 20:43:00,78.0,67.0,30.05,SE,127,0.0,-999.0,69,-99.99,,,-99.99,,2013-08-07 00:43:00,
2013-08-06 20:52:00,77.0,67.0,30.05,SE,127,0.0,-999.0,71,-99.99,,,-99.99,,2013-08-07 00:52:00,
2013-08-06 21:01:00,76.0,67.0,30.04,SE,127,0.0,-999.0,73,-99.99,,,-99.99,,2013-08-07 01:01:00,
2013-08-06 21:11:00,76.0,67.0,30.04,SE,127,0.0,-999.0,73,-99.99,,,-99.99,,2013-08-07 01:11:00,
2013-08-06 21:43:00,75.0,67.0,30.04,SE,127,0.0,-999.0,76,-99.99,,,-99.99,,2013-08-07 01:43:00,
2013-08-06 21:53:00,75.0,68.0,30.05,SE,127,0.0,-999.0,78,-99.99,,,-99.99,,2013-08-07 01:53:00,
2013-08-06 22:02:00,75.0,68.0,30.05,SE,127,0.0,-999.0,78,-99.99,,,-99.99,,2013-08-07 02:02:00,
2013-08-06 22:11:00,74.0,67.0,30.05,SE,127,0.0,-999.0,80,-99.99,,,-99.99,,2013-08-07 02:11:00,
2013-08-06 22:22:00,74.0,68.0,30.05,SE,127,0.0,-999.0,81,-99.99,,,-99.99,,2013-08-07 02:22:00,
2013-08-06 22:33:00,74.0,68.0,30.05,SE,127,0.0,-999.0,81,-99.99,,,-99.99,,2013-08-07 02:33:00,
2013-08-06 22:43:00,74.0,68.0,30.05,SE,127,0.0,-999.0,82,-99.99,,,-99.99,,2013-08-07 02:43:00,
2013-08-06 22:53:00,74.0,69.0,30.05,SE,127,0.0,-999.0,84,-99.99,,,-99.99,,2013-08-07 02:53:00,
2013-08-06 23:01:00,73.0,68.0,30.06,SE,127,0.0,-999.0,85,-99.99,,,-99.99,,2013-08-07 03:01:00,
2013-08-06 23:12:00,73.0,68.0,30.06,SE,127,0.0,-999.0,85,-99.99,,,-99.99,,2013-08-07 03:12:00,
2013-08-06 23:23:00,73.0,68.0,30.06,SE,127,0.0,-999.0,85,-99.99,,,-99.99,,2013-08-07 03:23:00,
2013-08-06 23:43:00,73.0,69.0,30.06,SE,127,0.0,-999.0,86,-99.99,,,-99.99,,2013-08-07 03:43:00,
2013-08-06 23:52:00,73.0,69.0,30.06,SE,127,0.0,-999.0,86,-99.99,,,-99.99,,2013-08-07 03:52:00,